Location: Observatory
(52.1446°N, 0.4624°W)
Time: 02:06:38
(UTC+01:00)

ISS - Pass Details

Date: 25 May 2018
Orbit: 402 x 406 km, 51.6° (Epoch: 21 June)

Event Time Altitude Azimuth Distance (km) Brightness Sun altitude
Rises 00:58:54 0° 279° (W) 2,322 0.1 -17.0°
Reaches altitude 10° 01:01:00 10° 276° (W) 1,461 -0.9 -16.9°
Maximum altitude 01:04:14 62° 196° (SSW) 459 -3.9 -16.9°
Enters shadow 01:05:09 41° 134° (SE) 603 -3.3 -16.9°
